Stations météo

réclame
Mon MeteoGroup
Pau, France (7610): Température de l'air & dewpoint: 20.09.2018 11:00:00 - 26.09.2018 11:00:00 (CEST)Pau, France (7610): Température de l'air 5cm: 20.09.2018 11:00:00 - 26.09.2018 11:00:00 (CEST)Pau, France (7610): Température de l'air -20cm & Température de l'air -100cm: 20.09.2018 11:00:00 - 26.09.2018 11:00:00 (CEST)Pau, France (7610): Vitesse du vent & gusts: 20.09.2018 11:00:00 - 26.09.2018 11:00:00 (CEST)Pau, France (7610): Direction du vent: 20.09.2018 11:00:00 - 26.09.2018 11:00:00 (CEST)Pau, France (7610): reduced air pressure: 20.09.2018 11:00:00 - 26.09.2018 11:00:00 (CEST)Pau, France (7610): visibility: 20.09.2018 11:00:00 - 26.09.2018 11:00:00 (CEST)Pau, France (7610): Ensoleillement: 20.09.2018 11:00:00 - 26.09.2018 11:00:00 (CEST)Pau, France (7610): Quantités de précipitations: 20.09.2018 11:00:00 - 26.09.2018 11:00:00 (CEST)
Date & Time tt [°C] td [°C] tt 5cm [°C] tt -20cm [°C] tt -100cm [°C] ff [km/h] ff [knt] fx [km/h] fx [knt] dd ppp [hPa] vv [km] sd [min] rr [mm]
26.09.2018 11:00:00 19,7 11,7 23,7 19,7 20,1 10 5 18 10 ESE 1028,0 60 60 0,0
26.09.2018 10:00:00 16,3 11,0 13,7 19,8 20,1 8 4 17 9 ESE 1028,2 26 60 0,0
26.09.2018 09:00:00 11,9 9,6 7,7 19,9 20,1 8 4 12 6 ESE 1028,2 44 50 0,0
26.09.2018 08:00:00 9,7 8,6 7,0 20,0 20,1 4 2 12 6 E 1028,0 26 0 0,0
26.09.2018 07:00:00 9,2 8,3 7,0 20,1 20,1 7 4 10 5 E 1028,0 23 0 0,2
26.09.2018 06:00:00 9,2 8,3 6,4 20,2 20,1 4 2 10 5 E 1028,0 26 0 0,0
26.09.2018 05:00:00 8,7 7,8 5,6 20,2 20,1 4 2 8 4 E 1028,2 20 0 0,0
26.09.2018 04:00:00 9,3 8,2 6,1 20,4 20,1 4 2 5 3 E 1028,0 32 0 0,0
26.09.2018 03:00:00 9,2 8,0 5,8 20,4 20,1 4 2 6 3 ESE 1028,3 31 0 0,0
26.09.2018 02:00:00 9,9 8,2 7,1 20,5 20,2 4 2 9 5 ESE 1028,4 49 0 0,0
26.09.2018 01:00:00 10,2 8,1 6,9 20,6 20,2 5 3 6 4 SE 1028,4 38 0 0,0
26.09.2018 00:00:00 10,5 8,1 7,5 20,6 20,2 3 1 12 7 SE 1028,5 32 0 0,0
25.09.2018 23:00:00 11,6 8,4 7,5 20,6 20,1 4 2 8 4 E 1028,4 60 0 0,0
25.09.2018 22:00:00 12,8 8,5 7,7 20,6 20,2 3 2 5 3 SSW 1027,9 60 0 0,0
25.09.2018 21:00:00 14,1 7,8 8,5 20,6 20,2 0 0 8 5 N 1027,5 59 0 0,0
25.09.2018 20:00:00 17,0 7,6 12,5 20,5 20,2 6 4 14 7 NNE 1026,7 46 29 0,0
25.09.2018 19:00:00 19,9 7,3 22,9 20,4 20,1 7 4 18 10 N 1026,3 49 60 0,0
25.09.2018 18:00:00 20,6 7,6 26,0 20,3 20,2 5 3 17 9 NNW 1026,2 60 60 0,0
25.09.2018 17:00:00 21,0 7,9 28,4 20,2 20,2 6 3 14 8 ESE 1026,3 49 60 0,0
25.09.2018 16:00:00 20,9 7,8 29,1 20,1 20,2 7 4 20 11 ENE 1026,7 56 60 0,0
25.09.2018 15:00:00 19,9 8,6 27,6 20,1 20,2 6 3 16 9 SSE 1027,2 60 60 0,0
25.09.2018 14:00:00 18,1 8,1 26,3 20,1 20,1 6 3 16 9 SSW 1028,0 41 60 0,0
25.09.2018 13:00:00 16,6 10,2 24,6 20,1 20,2 10 5 16 9 NW 1028,5 12 60 0,0
25.09.2018 12:00:00 12,9 12,3 14,0 20,2 20,2 4 2 10 6 SW 1028,9 15 36 0,0
25.09.2018 11:00:00 10,8 10,5 11,7 20,4 20,2 3 2 10 5 WSW 1029,0 1,6 7 0,0
25.09.2018 10:00:00 9,0 8,5 8,9 20,5 20,2 4 2 9 5 S 1029,0 0,3 2 0,0
25.09.2018 09:00:00 7,6 7,2 6,7 20,6 20,2 3 1 5 3 ESE 1028,9 0,2 0 0,0
25.09.2018 08:00:00 7,3 6,9 5,0 20,7 20,2 0 0 5 3 N 1028,7 0,2 0 0,0
25.09.2018 07:00:00 7,1 6,7 3,2 20,9 20,2 3 2 4 2 SSE 1028,6 0,2 0 0,0
25.09.2018 06:00:00 6,6 6,0 2,2 21,0 20,2 2 1 7 4 SE 1028,9 0,3 0 0,0
25.09.2018 05:00:00 6,9 6,3 2,3 21,2 20,2 2 1 4 2 SE 1029,1 0,6 0 0,0
25.09.2018 04:00:00 7,7 7,1 2,9 21,2 20,2 4 2 5 3 NNE 1029,3 0,4 0 0,0
25.09.2018 03:00:00 8,6 8,0 3,8 21,3 20,2 3 2 5 3 NE 1029,6 0,3 0 0,0
25.09.2018 02:00:00 8,9 8,1 4,3 21,4 20,2 5 3 6 3 ESE 1029,7 0,8 0 0,2
25.09.2018 01:00:00 9,7 8,6 5,2 21,5 20,2 4 2 7 4 ENE 1029,9 0,5 0 0,0
25.09.2018 00:00:00 11,1 10,0 8,2 21,6 20,2 5 3 7 4 ENE 1029,8 8 0 0,0
24.09.2018 23:00:00 12,1 10,5 8,1 21,6 20,2 5 3 9 5 SSE 1030,0 18 0 0,0
24.09.2018 22:00:00 13,4 10,9 9,8 21,7 20,2 8 4 14 8 ESE 1030,0 34 0 0,0
24.09.2018 21:00:00 15,3 10,9 13,3 21,7 20,2 2 1 11 6 NE 1029,5 60 0 0,0
24.09.2018 20:00:00 16,5 8,7 13,8 21,7 20,2 2 1 9 5 N 1029,0 60 28 0,0
24.09.2018 19:00:00 18,1 8,4 18,3 21,7 20,2 5 3 10 5 WSW 1028,7 56 48 0,0
24.09.2018 18:00:00 17,9 9,8 18,7 21,7 20,2 5 3 18 10 W 1028,5 47 25 0,0
24.09.2018 17:00:00 18,3 10,4 19,2 21,7 20,2 13 7 23 13 NW 1028,9 54 31 0,0
24.09.2018 16:00:00 17,5 12,0 17,9 21,7 20,2 9 5 22 12 WSW 1029,4 31 14 0,0
24.09.2018 15:00:00 16,0 11,4 16,9 21,8 20,2 11 6 23 13 WSW 1030,0 42 0 0,0
24.09.2018 14:00:00 15,2 11,0 16,6 21,8 20,2 13 7 23 13 W 1030,6 51 0 0,0
24.09.2018 13:00:00 14,7 11,1 16,2 21,9 20,2 11 6 23 12 NW 1030,8 58 0 0,0
24.09.2018 12:00:00 14,8 11,4 17,3 22,0 20,2 11 6 20 11 NNW 1030,7 51 12 0,0
24.09.2018 11:00:00 14,4 11,0 13,0 22,0 20,2 13 7 20 11 N 1030,6 45 33 0,0
24.09.2018 10:00:00 13,2 11,9 13,3 22,1 20,2 12 7 26 14 N 1030,1 45 0 0,0
24.09.2018 09:00:00 14,3 13,7 14,3 22,1 20,2 16 9 27 15 NNW 1028,9 6 0 0,0
24.09.2018 08:00:00 15,7 14,9 15,5 22,2 20,2 15 8 29 16 NNW 1027,8 4,4 0 0,4
24.09.2018 07:00:00 17,2 16,4 16,9 22,3 20,2 10 5 19 10 W 1027,0 8 0 0,0
24.09.2018 06:00:00 17,4 16,6 17,1 22,3 20,2 11 6 16 9 W 1026,4 43 0 0,0
24.09.2018 05:00:00 17,5 16,9 17,2 22,3 20,2 8 5 18 10 NW 1026,3 57 0 0,2
24.09.2018 04:00:00 17,7 16,9 17,5 22,4 20,2 11 6 30 16 NNW 1026,2 6 0 1,8
24.09.2018 03:00:00 19,0 18,3 18,7 22,4 20,2 9 5 17 9 WSW 1025,9 2,5 0 0,6
24.09.2018 02:00:00 19,0 18,0 18,6 22,4 20,2 9 5 16 9 WSW 1025,9 4,9 0 0,0
24.09.2018 01:00:00 19,1 17,4 18,5 22,5 20,2 9 5 16 9 W 1026,0 8 0 0,0
24.09.2018 00:00:00 19,9 16,9 18,5 22,5 20,2 9 5 17 9 SW 1026,1 16 0 0,0
23.09.2018 23:00:00 19,8 16,8 18,8 22,5 20,2 9 5 22 12 SW 1026,4 17 0 0,0
23.09.2018 22:00:00 20,7 17,1 20,0 22,5 20,2 13 7 24 13 WSW 1026,4 19 0 0,0
23.09.2018 21:00:00 20,9 16,9 20,4 22,4 20,2 21 11 31 17 WNW 1026,1 22 0 0,0
23.09.2018 20:00:00 21,3 17,1 20,6 22,3 20,2 23 12 35 19 WNW 1024,9 30 19 0,0
23.09.2018 19:00:00 25,2 16,9 27,2 22,2 20,2 24 13 40 22 WNW 1023,6 45 49 0,0
23.09.2018 18:00:00 27,9 17,1 29,1 22,1 20,2 19 10 31 17 WNW 1022,5 51 55 0,0
23.09.2018 17:00:00 27,9 16,8 34,1 21,9 20,2 16 8 35 19 NW 1022,0 18 60 0,0
23.09.2018 16:00:00 28,7 15,9 35,3 21,8 20,2 15 8 26 14 WNW 1021,7 60 60 0,0
23.09.2018 15:00:00 28,2 15,8 34,9 21,7 20,2 14 8 23 12 W 1021,9 59 60 0,0
23.09.2018 14:00:00 27,2 16,8 34,4 21,7 20,2 8 5 23 12 NW 1022,6 48 60 0,0
23.09.2018 13:00:00 25,9 17,0 33,7 21,7 20,2 8 4 18 10 WNW 1023,2 44 60 0,0
23.09.2018 12:00:00 24,3 15,8 30,8 21,8 20,2 6 3 12 6 WNW 1023,6 55 60 0,0
23.09.2018 11:00:00 22,9 16,2 29,3 21,8 20,2 4 2 10 5 SSE 1023,9 40 60 0,0
23.09.2018 10:00:00 20,9 16,3 22,8 21,9 20,2 3 2 10 6 E 1023,9 39 60 0,0
23.09.2018 09:00:00 17,7 15,1 14,3 22,0 20,2 6 3 10 6 ESE 1023,8 17 52 0,0
23.09.2018 08:00:00 15,5 14,2 13,3 22,1 20,2 6 4 10 6 ESE 1023,7 22 0 0,0
23.09.2018 07:00:00 15,4 14,1 13,7 22,2 20,2 4 2 9 5 E 1023,8 27 0 0,0
23.09.2018 06:00:00 15,7 14,4 13,9 22,2 20,2 6 4 11 6 ESE 1023,9 30 0 0,0
23.09.2018 05:00:00 15,7 14,2 12,8 22,3 20,2 4 2 12 6 E 1024,2 26 0 0,0
23.09.2018 04:00:00 16,7 15,1 14,0 22,4 20,2 9 5 11 6 SE 1024,7 22 0 0,0
23.09.2018 03:00:00 16,2 14,9 13,0 22,5 20,2 5 3 6 4 ENE 1025,2 36 0 0,0
23.09.2018 02:00:00 16,7 14,7 14,6 22,5 20,2 4 2 9 5 ENE 1025,2 19 0 0,0
23.09.2018 01:00:00 17,2 15,0 14,7 22,5 20,2 2 1 8 5 ESE 1025,1 45 0 0,0
23.09.2018 00:00:00 18,0 15,1 14,2 22,6 20,2 0 0 10 5 N 1024,8 52 0 0,0
22.09.2018 23:00:00 20,2 15,0 15,2 22,6 20,2 8 4 11 6 SSW 1024,6 58 0 0,0
22.09.2018 22:00:00 20,9 15,0 15,3 22,5 20,1 4 2 13 7 W 1023,9 60 0 0,0
22.09.2018 21:00:00 21,8 15,2 16,3 22,5 20,2 9 5 15 8 W 1023,5 60 0 0,0
22.09.2018 20:00:00 24,2 15,1 20,5 22,4 20,2 8 5 16 9 W 1022,8 60 34 0,0
22.09.2018 19:00:00 26,9 15,3 28,3 22,3 20,2 13 7 22 12 WNW 1022,4 39 56 0,0
22.09.2018 18:00:00 28,0 15,6 31,6 22,1 20,1 14 8 27 15 WNW 1022,3 44 60 0,0
22.09.2018 17:00:00 28,5 15,4 33,9 22,0 20,1 14 8 27 14 WNW 1022,2 60 60 0,0
22.09.2018 16:00:00 28,2 15,5 35,4 21,9 20,2 11 6 24 13 NW 1022,1 53 60 0,0
22.09.2018 15:00:00 27,2 16,2 35,9 21,9 20,2 5 3 21 11 NNE 1022,4 56 60 0,0
22.09.2018 14:00:00 26,0 15,7 33,3 21,8 20,1 4 2 13 7 ESE 1022,9 55 60 0,0
22.09.2018 13:00:00 24,6 15,2 31,9 21,8 20,1 5 3 14 7 SSW 1023,2 49 60 0,0
22.09.2018 12:00:00 23,3 15,4 30,7 21,9 20,1 6 3 11 6 ESE 1023,5 53 60 0,0
22.09.2018 11:00:00 22,5 15,6 28,5 21,9 20,1 3 2 13 7 S 1023,5 1,0 60 0,0
22.09.2018 10:00:00 20,4 16,4 20,0 22,0 20,2 6 3 11 6 SE 1023,5 44 23 0,0
22.09.2018 09:00:00 17,5 15,3 15,6 22,1 20,2 3 2 9 5 ENE 1023,5 40 4 0,0
22.09.2018 08:00:00 16,8 14,8 15,6 22,1 20,1 7 4 15 8 E 1023,4 51 0 0,0
22.09.2018 07:00:00 17,7 15,5 17,3 22,1 20,1 5 3 10 6 E 1023,2 53 0 0,0
22.09.2018 06:00:00 17,5 15,5 17,3 22,2 20,1 7 4 9 5 NE 1023,5 53 0 0,0
22.09.2018 05:00:00 17,7 15,5 17,4 22,2 20,1 5 3 10 5 N 1023,6 56 0 0,0
22.09.2018 04:00:00 17,9 15,0 17,6 22,3 20,1 6 4 9 5 ESE 1024,1 56 0 0,0
22.09.2018 03:00:00 17,8 15,6 17,6 22,3 20,1 6 3 11 6 NNE 1024,3 58 0 0,0
22.09.2018 02:00:00 17,9 15,7 17,7 22,4 20,1 6 3 9 5 N 1024,5 57 0 0,0
22.09.2018 01:00:00 17,9 15,3 17,8 22,4 20,1 5 3 7 4 NNE 1024,7 60 0 0,0
22.09.2018 00:00:00 18,0 15,6 17,8 22,5 20,1 4 2 12 6 ENE 1024,7 60 0 0,0
21.09.2018 23:00:00 18,1 16,3 17,8 22,5 20,1 6 4 17 9 N 1024,6 60 0 0,0
21.09.2018 22:00:00 18,5 16,7 18,1 22,5 20,1 8 5 19 10 NNW 1024,1 42 0 0,0
21.09.2018 21:00:00 19,5 16,7 19,1 22,5 20,1 14 8 22 12 NNW 1023,6 34 0 0,0
21.09.2018 20:00:00 20,7 15,7 20,0 22,4 20,1 15 8 31 17 WNW 1022,7 19 0 0,0
21.09.2018 19:00:00 22,2 15,8 22,5 22,4 20,1 16 9 38 20 WNW 1021,9 45 37 0,0
21.09.2018 18:00:00 24,1 15,0 25,8 22,3 20,1 23 13 39 21 WNW 1021,3 29 47 0,0
21.09.2018 17:00:00 25,4 14,5 26,8 22,3 20,1 26 14 40 22 WNW 1020,9 19 37 0,0
21.09.2018 16:00:00 25,7 14,8 29,6 22,2 20,1 21 12 31 17 W 1019,9 35 42 0,0
21.09.2018 15:00:00 25,4 14,8 29,7 22,2 20,1 16 9 29 16 W 1020,1 36 43 0,0
21.09.2018 14:00:00 25,0 15,3 29,2 22,2 20,1 14 8 28 15 WNW 1020,4 18 55 0,0
21.09.2018 13:00:00 24,0 15,8 27,5 22,2 20,1 15 8 27 14 WNW 1020,9 19 34 0,0
21.09.2018 12:00:00 23,0 16,1 24,2 22,2 20,1 11 6 22 12 W 1020,9 26 24 0,0
21.09.2018 11:00:00 21,6 17,6 22,5 22,3 20,1 11 6 20 11 WSW 1020,7 16 7 0,0
21.09.2018 10:00:00 20,7 17,5 22,3 22,3 20,1 9 5 14 8 W 1020,2 14 30 0,0
21.09.2018 09:00:00 19,8 17,6 18,7 22,4 20,1 4 2 10 5 S 1019,2 12 31 0,0
21.09.2018 08:00:00 19,1 17,4 18,7 22,4 20,1 7 4 11 6 S 1018,7 13 0 0,0
21.09.2018 07:00:00 18,9 17,6 16,9 22,5 20,1 5 3 8 4 SSE 1018,0 12 0 0,0
21.09.2018 06:00:00 17,9 16,9 14,7 22,6 20,1 0 0 9 5 N 1017,8 8 0 0,0
21.09.2018 05:00:00 18,3 17,0 16,7 22,6 20,1 5 3 12 6 SW 1017,9 13 0 0,0
21.09.2018 04:00:00 18,1 16,9 16,8 22,7 20,1 5 3 10 5 SW 1017,9 12 0 0,0
21.09.2018 03:00:00 17,9 16,9 14,9 22,7 20,1 8 4 17 9 SW 1017,6 14 0 0,0
21.09.2018 02:00:00 17,7 16,0 15,7 22,8 20,1 9 5 21 11 SW 1017,8 13 0 0,0
21.09.2018 01:00:00 18,6 16,7 17,3 22,8 20,1 13 7 23 12 WSW 1018,0 17 0 0,0
21.09.2018 00:00:00 19,3 16,7 18,2 22,8 20,1 11 6 30 16 W 1017,7 19 0 0,0
20.09.2018 23:00:00 20,6 17,4 17,5 22,8 20,1 16 9 24 13 W 1017,1 17 0 0,0
20.09.2018 22:00:00 21,6 17,8 17,5 22,7 20,1 4 2 7 4 SW 1016,0 32 0 0,0
20.09.2018 21:00:00 23,6 18,0 18,5 22,6 20,1 3 2 8 5 W 1015,1 29 0 0,0
20.09.2018 20:00:00 28,2 17,7 22,8 22,5 20,1 5 3 9 5 SW 1014,5 39 38 0,0
20.09.2018 19:00:00 31,2 16,0 34,1 22,4 20,1 3 2 9 5 WNW 1014,5 42 60 0,0
20.09.2018 18:00:00 32,2 15,7 37,6 22,3 20,1 3 1 13 7 ENE 1014,7 37 60 0,0
20.09.2018 17:00:00 32,7 16,1 39,0 22,1 20,0 6 4 16 9 SSE 1015,1 37 60 0,0
20.09.2018 16:00:00 31,9 16,6 39,1 22,0 20,0 6 3 20 11 E 1015,7 20 60 0,0
20.09.2018 15:00:00 30,8 17,1 38,0 21,9 20,0 7 4 25 13 NE 1016,5 44 60 0,0
20.09.2018 14:00:00 29,3 18,1 36,2 21,9 20,0 9 5 18 10 N 1017,3 19 60 0,0
20.09.2018 13:00:00 26,8 18,1 33,9 21,9 20,1 6 3 16 9 NNE 1018,4 30 60 0,0
20.09.2018 12:00:00 24,7 17,2 30,6 22,0 20,0 5 3 21 11 SE 1019,2 28 60 0,0
20.09.2018 11:00:00 22,4 17,3 27,7 22,1 20,0 5 3 11 6 SSE 1019,8 20 60 0,0

tt = Température de l'air
td = dewpoint
tt 5cm = Température de l'air 5cm
tt -20cm = Température de l'air -20cm
tt -100cm = Température de l'air -100cm
ff = Vitesse du vent
fx = gusts
dd = Direction du vent
ppp = reduced air pressure
vv = visibility
sd = Ensoleillement
rr = Quantités de précipitations

stations d'obs. à proximité